Location: Unspecified
(0.0000°N, 0.0000°E)
Time: 13:24:02
(UTC+00:00)

Envisat - Pass Details

Date: 10 April 2021
Orbit: 764 x 766 km, 98.1° (Epoch: 16 April)

Event Time Altitude Azimuth Distance (km) Brightness Sun altitude
Rises 04:58:02 0° 17° (NNE) 3,213 6.6 -15.7°
Reaches altitude 10° 05:00:20 10° 20° (NNE) 2,290 5.8 -15.1°
Maximum altitude 05:05:21 66° 102° (ESE) 833 3.4 -13.9°
Drops below altitude 10° 05:10:22 10° 184° (S) 2,301 5.4 -12.6°
Sets 05:12:42 0° 186° (S) 3,229 6.1 -12.0°
